Flag Weather past 2 weeks in Bydgoszcz, Poland

Now
33 °F

Fog.


Feels Like: 33 °F
Forecast: 28 / 32 °F
Wind: 2 mph from East

Location: Torun

Current Time: Nov 27, 2014 at 12:01:42 PM

Latest Report: Nov 27, 2014 at 11:00 AM


Visibility: 2 mi

Pressure: 30.23 "Hg

Humidity: 95%

Dew point: 32 °F

Location of BydgoszczLocation

Historic Weather in Bydgoszcz — Graph

°F

Bydgoszcz temperature yesterday

Maximum temperature yesterday: 42 °F (at 2:00 PM)
Minimum temperature yesterday: 39 °F (at 11:00 PM)
Average temperature yesterday: 40 °F

Past Weeks' High & Low Weather Summary

 TemperatureHumidityPressure
High49 °F (Nov 14, 11:00 AM)100% (Nov 25, 12:00 AM)30.47 "Hg (Nov 25, 12:00 AM)
Low32 °F (Nov 21, 2:00 AM)70% (Nov 24, 12:00 PM)29.84 "Hg (Nov 16, 2:00 PM)
Average40 °F92%30.17 "Hg
* Reported Nov 12 10:00 AM — Nov 27 10:00 AM, Bydgoszcz, Weather by CustomWeather, © 2014

Note: Actual official high and low records may vary slightly from our data, if they occured in-between our weather recording intervals... More about our weather records

Advertising

Bydgoszcz weather history for previous 24 hours

 ConditionsComfort  
Time TempWeatherWind HumidityBarometerVisibility
10:00 AM
Nov 27
33 °FFog.3 mph95%30.24 "Hg2 mi
9:00 AM33 °FFog.3 mph93%30.24 "Hg2 mi
8:00 AM35 °FFog.3 mph91%30.23 "Hg4 mi
7:00 AM34 °FFog.3 mph92%30.23 "Hg3 mi
6:00 AM34 °FFog.3 mph92%30.23 "Hg4 mi
5:00 AM35 °FFog.2 mph91%30.23 "Hg5 mi
4:00 AM35 °FFog.3 mph90%30.23 "Hg6 mi
3:00 AM36 °FFog.2 mph92%30.24 "Hg4 mi
2:00 AM35 °FFog.2 mph92%30.25 "Hg4 mi
12:00 AM38 °FFog.3 mph93%30.26 "Hg2 mi
11:00 PM
Nov 26
39 °FFog.2 mph94%30.27 "Hg1 mi
10:00 PM39 °FFog.2 mph94%30.27 "Hg2 mi
9:00 PM39 °FFog.2 mph95%30.27 "Hg1 mi
8:00 PM40 °FFog.2 mph95%30.27 "Hg2 mi
7:00 PM40 °FFog.1 mph95%30.27 "Hg2 mi
6:00 PM40 °FFog.1 mph96%30.28 "Hg1 mi
5:00 PM40 °FFog.1 mph95%30.28 "Hg1 mi
4:00 PM40 °FFog.No wind94%30.28 "Hg2 mi
3:00 PM41 °FFog.No wind93%30.29 "Hg2 mi
2:00 PM42 °FFog.No wind92%30.29 "Hg2 mi
1:00 PM41 °FFog.1 mph94%30.30 "Hg2 mi
12:00 PM41 °FFog.1 mph93%30.32 "Hg2 mi
Weather by CustomWeather, © 2014

See weather overviewHow to use our weather pages